Location: Newark
(27.9675°N, 86.8869°E)
Time: 11:20:03
(UTC+00:00)

deb Explorer IX - Pass Details

Date: 28 October 2019
Orbit: 546 x 1105 km, 38.8° (Epoch: 13 November)

Event Time Altitude Azimuth Distance (km) Brightness Sun altitude
Rises 08:44:34 0° 302° (WNW) 3,106 ? 32.2°
Reaches altitude 10° 08:46:52 10° 307° (NW) 2,266 ? 31.8°
Maximum altitude 08:52:09 56° 25° (NNE) 995 ? 30.9°
Drops below altitude 10° 08:58:21 10° 103° (ESE) 2,653 ? 29.8°
Sets 09:01:14 0° 107° (ESE) 3,681 ? 29.3°
